KC4LW Weather Reports


time (UTC)temp
C
wind
direction
speed
KPH
gust
KPH
rain 1hr
cm
rain 24hr
cm
rain mn
cm
humidity
%
barometer
mb
20260509030059 21 61 0.0 8.0 0.00 0.00 0.00 92 1014.6
20260509024556 22 268 1.6 11.3 0.00 0.00 0.00 92 1015.0
20260509023111 22 144 0.0 4.8 0.00 0.00 0.00 93 1014.6
20260509021552 22 46 1.6 4.8 0.00 0.00 0.00 93 1014.4
20260509020053 22 41 0.0 4.8 0.00 0.00 0.00 92 1014.2
20260509014552 22 104 0.0 3.2 0.00 0.00 0.00 92 1014.1
20260509013052 22 0 0.0 1.6 0.00 0.00 0.00 92 1013.7
20260509011555 22 0 0.0 3.2 0.00 0.00 0.00 92 1013.6
20260509010054 22 0 0.0 3.2 0.00 0.00 0.00 92 1013.5
20260509004601 22 0 0.0 4.8 0.00 0.00 0.00 91 1013.3
20260509003057 22 38 0.0 1.6 0.00 0.00 0.00 91 1013.4
20260509001552 22 102 0.0 4.8 0.00 0.00 0.00 91 1013.1
20260509000054 22 24 1.6 8.0 0.00 0.00 0.00 90 1012.8
20260508234556 22 0 1.6 11.3 0.00 0.00 0.00 89 1012.8
20260508233058 22 195 3.2 9.7 0.00 0.00 0.00 89 1012.8
20260508231600 22 97 0.0 9.7 0.00 0.00 0.00 88 1012.7
20260508230125 22 69 3.2 11.3 0.00 0.00 0.00 87 1012.6
20260508224604 22 115 1.6 9.7 0.00 0.00 0.00 87 1012.7
20260508223058 22 55 3.2 11.3 0.00 0.00 0.00 86 1012.3
20260508221552 23 10 3.2 11.3 0.00 0.00 0.00 86 1012.3
20260508220121 23 76 1.6 11.3 0.00 0.00 0.00 85 1012.4
20260508214557 23 52 1.6 12.9 0.00 0.00 0.00 84 1012.4
20260508213056 23 103 3.2 14.5 0.00 0.00 0.00 83 1012.2
20260508211555 23 76 3.2 9.7 0.00 0.00 0.00 82 1012.2
20260508210059 23 74 3.2 16.1 0.00 0.00 0.00 81 1012.3
20260508204605 23 190 4.8 16.1 0.00 0.00 0.00 80 1012.3
20260508203058 23 83 3.2 16.1 0.00 0.00 0.00 79 1012.4
20260508201555 24 91 3.2 12.9 0.00 0.00 0.00 79 1012.5
20260508200100 24 106 1.6 11.3 0.00 0.00 0.00 80 1012.8
20260508194554 23 40 1.6 11.3 0.00 0.00 0.00 80 1013.1
20260508193100 23 81 1.6 9.7 0.00 0.00 0.00 82 1013.3
20260508191553 23 82 0.0 9.7 0.00 0.00 0.00 80 1013.6
20260508190105 23 105 3.2 14.5 0.00 0.00 0.00 80 1013.6
20260508184555 23 5 1.6 6.4 0.00 0.00 0.00 80 1013.5
20260508183053 23 30 1.6 6.4 0.00 0.00 0.00 80 1013.8
20260508181608 23 105 1.6 12.9 0.00 0.00 0.00 79 1013.8
20260508180104 24 67 3.2 11.3 0.00 0.00 0.00 77 1013.6
20260508174604 23 76 3.2 9.7 0.00 0.00 0.00 77 1013.9
20260508173053 23 352 1.6 11.3 0.00 0.00 0.00 77 1013.9
20260508171555 23 62 1.6 11.3 0.00 0.00 0.00 76 1014.3
20260508170059 23 103 1.6 11.3 0.00 0.00 0.00 78 1014.4
20260508164556 23 35 3.2 11.3 0.00 0.00 0.00 80 1014.5
20260508163053 22 135 1.6 11.3 0.00 0.00 0.00 79 1014.8
20260508161601 23 0 1.6 6.4 0.00 0.00 0.00 80 1014.9
20260508160104 23 111 1.6 6.4 0.00 0.00 0.00 79 1015.0
20260508154559 23 98 1.6 9.7 0.00 0.00 0.00 79 1015.1
20260508153103 23 72 0.0 9.7 0.00 0.00 0.00 79 1015.1
20260508151558 23 12 0.0 8.0 0.00 0.00 0.00 78 1015.3
20260508150059 23 80 1.6 4.8 0.00 0.00 0.00 78 1015.0
20260508144555 23 98 1.6 6.4 0.00 0.00 0.00 79 1015.1
20260508143100 23 69 3.2 11.3 0.00 0.00 0.00 81 1014.8
20260508141559 22 85 1.6 9.7 0.00 0.00 0.00 82 1015.0
20260508140100 22 67 0.0 4.8 0.00 0.00 0.00 82 1015.0
20260508134600 22 0 0.0 4.8 0.00 0.00 0.00 82 1015.0
20260508133050 22 0 1.6 9.7 0.00 0.00 0.00 82 1014.9
20260508131551 22 0 3.2 12.9 0.00 0.00 0.00 83 1014.4
20260508130050 22 351 1.6 6.4 0.00 0.00 0.00 83 1014.2
20260508124550 22 166 1.6 8.0 0.00 0.00 0.00 84 1014.6
20260508123106 22 159 1.6 9.7 0.00 0.00 0.00 87 1014.4
20260508121556 23 0 1.6 17.7 0.00 0.00 0.00 90 1014.1
20260508120055 23 0 0.0 4.8 0.00 0.00 0.00 92 1013.8
20260508114553 23 0 0.0 3.2 0.00 0.00 0.00 93 1013.4
20260508113100 23 252 0.0 3.2 0.00 0.00 0.00 93 1013.2
20260508111556 23 0 0.0 6.4 0.00 0.00 0.00 93 1013.0
20260508110053 23 0 0.0 3.2 0.00 0.00 0.00 93 1012.8
20260508104555 23 312 0.0 3.2 0.00 0.00 0.00 93 1012.4
20260508103056 23 304 0.0 9.7 0.00 0.00 0.00 93 1012.2
20260508101552 23 9 0.0 4.8 0.00 0.00 0.00 94 1012.2
20260508100049 24 294 1.6 6.4 0.00 0.00 0.00 93 1012.0
20260508094610 24 298 0.0 1.6 0.00 0.00 0.00 93 1011.9
20260508093050 24 298 1.6 6.4 0.00 0.00 0.00 92 1011.7
20260508091553 24 294 0.0 4.8 0.00 0.00 0.00 92 1011.5
20260508090052 24 249 1.6 12.9 0.00 0.00 0.00 91 1011.6
20260508084552 24 291 1.6 4.8 0.00 0.00 0.00 91 1011.4
20260508083053 24 305 1.6 9.7 0.00 0.00 0.00 91 1011.5
20260508081610 24 285 3.2 11.3 0.00 0.00 0.00 90 1011.4
20260508080055 24 275 6.4 14.5 0.00 0.00 0.00 90 1011.5
20260508074552 24 284 4.8 14.5 0.00 0.00 0.00 90 1011.5
20260508073052 25 259 4.8 12.9 0.00 0.00 0.00 90 1011.8
20260508071556 24 293 3.2 12.9 0.00 0.00 0.00 90 1012.0
20260508070057 24 292 6.4 12.9 0.00 0.00 0.00 89 1012.0
20260508064554 24 296 4.8 12.9 0.00 0.00 0.00 89 1012.0
20260508063103 25 258 1.6 12.9 0.00 0.00 0.00 88 1012.1
20260508061557 25 300 3.2 12.9 0.00 0.00 0.00 88 1012.2
20260508060057 25 270 3.2 14.5 0.00 0.00 0.00 87 1012.4
20260508054551 25 276 3.2 14.5 0.00 0.00 0.00 87 1012.3
20260508053051 25 240 3.2 9.7 0.00 0.00 0.00 86 1012.5
20260508051555 25 286 1.6 8.0 0.00 0.00 0.00 85 1012.5
20260508050110 25 253 3.2 11.3 0.00 0.00 0.00 85 1012.4
20260508044553 25 257 3.2 14.5 0.00 0.00 0.00 84 1012.4
20260508043053 25 246 6.4 17.7 0.00 0.00 0.00 83 1012.8
20260508041553 26 213 6.4 16.1 0.00 0.00 0.00 82 1012.4
20260508040058 26 284 6.4 17.7 0.00 0.00 0.00 80 1012.3
20260508034558 26 301 4.8 17.7 0.00 0.00 0.00 79 1012.4
20260508033055 26 309 8.0 20.9 0.00 0.00 0.00 78 1012.2
20260508031556 26 279 6.4 17.7 0.00 0.00 0.00 76 1012.0